GW4106 Weather Reports


Display with metric or nautical units.
time (UTC)temp
F
wind
direction
speed
MPH
gust
MPH
rain 1hr
in
rain 24hr
in
rain mn
in
humidity
%
barometer
mb
20260504222001 77 243 7.0 15.0 0.00 0.00 0.00 46 1010.4
20260504221501 77 287 6.0 17.0 0.00 0.00 0.00 45 1010.4
20260504221001 78 241 8.0 19.0 0.00 0.00 0.00 45 1010.5
20260504220502 78 194 11.0 19.0 0.00 0.00 0.00 44 1010.4
20260504220003 78 219 6.0 19.0 0.00 0.00 0.00 46 1010.3
20260504215502 78 223 7.0 19.0 0.00 0.00 0.00 45 1010.3
20260504215001 78 270 7.0 16.0 0.00 0.00 0.00 46 1010.5
20260504214502 78 241 10.0 16.0 0.00 0.00 0.00 46 1010.4
20260504212501 78 251 10.0 22.0 0.00 0.00 0.00 45 1010.5
20260504212001 78 255 11.0 22.0 0.00 0.00 0.00 45 1010.7
20260504211501 78 230 8.0 18.0 0.00 0.00 0.00 46 1010.6
20260504211001 78 181 7.0 18.0 0.00 0.00 0.00 46 1010.8
20260504210501 78 211 6.0 20.0 0.00 0.00 0.00 46 1010.7
20260504210002 78 233 8.0 21.0 0.00 0.00 0.00 45 1010.7
20260504205501 78 240 12.0 21.0 0.00 0.00 0.00 45 1010.7
20260504205002 78 275 9.0 22.0 0.00 0.00 0.00 44 1011.0
20260504204501 78 248 8.0 20.0 0.00 0.00 0.00 46 1010.9
20260504204001 79 223 4.0 20.0 0.00 0.00 0.00 46 1011.0
20260504203504 79 207 4.0 21.0 0.00 0.00 0.00 46 1011.0
20260504203002 79 165 8.0 18.0 0.00 0.00 0.00 44 1011.3
20260504202502 78 163 8.0 16.0 0.00 0.00 0.00 44 1011.3
20260504202001 78 219 9.0 16.0 0.00 0.00 0.00 44 1011.5
20260504201501 79 275 7.0 18.0 0.00 0.00 0.00 43 1011.4
20260504201003 78 194 7.0 25.0 0.00 0.00 0.00 44 1011.6
20260504200502 78 248 11.0 25.0 0.00 0.00 0.00 44 1011.7
20260504200002 78 250 4.0 17.0 0.00 0.00 0.00 47 1011.7
20260504195500 79 240 10.0 17.0 0.00 0.00 0.00 44 1012.0
20260504195000 78 169 8.0 14.0 0.00 0.00 0.00 44 1012.0
20260504194501 78 188 7.0 13.0 0.00 0.00 0.00 46 1012.0
20260504194027 78 219 4.0 20.0 0.00 0.00 0.00 47 1012.2
20260504193607 79 270 8.0 21.0 0.00 0.00 0.00 46 1012.7
20260504193018 79 248 9.0 19.0 0.00 0.00 0.00 45 1012.4
20260504192518 79 225 10.0 20.0 0.00 0.00 0.00 45 1012.5
20260504192038 79 293 7.0 16.0 0.00 0.00 0.00 46 1012.4
20260504191518 79 225 10.0 20.0 0.00 0.00 0.00 46 1012.7
20260504191018 79 270 7.0 18.0 0.00 0.00 0.00 48 1012.6
20260504190518 79 293 5.0 14.0 0.00 0.00 0.00 45 1012.7
20260504190018 79 270 6.0 13.0 0.00 0.00 0.00 48 1012.7
20260504185522 79 158 5.0 14.0 0.00 0.00 0.00 45 1012.7
20260504185018 78 225 9.0 16.0 0.00 0.00 0.00 46 1013.0
20260504184518 78 270 5.0 9.0 0.00 0.00 0.00 47 1012.7
20260504184018 79 270 8.0 17.0 0.00 0.00 0.00 48 1012.8
20260504183540 78 180 8.0 16.0 0.00 0.00 0.00 48 1013.0
20260504183018 79 248 7.0 15.0 0.00 0.00 0.00 47 1013.1
20260504182518 78 270 7.0 14.0 0.00 0.00 0.00 49 1012.9
20260504182018 77 248 6.0 12.0 0.00 0.00 0.00 52 1013.1
20260504181518 77 225 5.0 11.0 0.00 0.00 0.00 52 1013.2
20260504181019 77 225 5.0 11.0 0.00 0.00 0.00 51 1013.3
20260504180518 77 293 6.0 15.0 0.00 0.00 0.00 54 1013.3
20260504180018 77 225 7.0 11.0 0.00 0.00 0.00 52 1013.4
20260504175517 78 293 6.0 14.0 0.00 0.00 0.00 50 1013.4
20260504175018 78 225 8.0 14.0 0.00 0.00 0.00 51 1013.4
20260504174520 78 248 6.0 13.0 0.00 0.00 0.00 52 1013.4
20260504174020 78 203 6.0 17.0 0.00 0.00 0.00 51 1013.5
20260504173540 78 225 6.0 14.0 0.00 0.00 0.00 50 1013.4
20260504173020 77 248 7.0 14.0 0.00 0.00 0.00 54 1013.7
20260504172519 77 270 6.0 14.0 0.00 0.00 0.00 53 1013.6
20260504172020 77 270 7.0 13.0 0.00 0.00 0.00 58 1013.8
20260504171520 76 248 8.0 17.0 0.00 0.00 0.00 53 1013.8
20260504171020 76 225 7.0 15.0 0.00 0.00 0.00 54 1013.9
20260504170520 77 293 7.0 17.0 0.00 0.00 0.00 56 1013.8
20260504151019 70 225 5.0 11.0 0.00 0.00 0.00 69 1014.9
20260504150519 70 248 4.0 8.0 0.00 0.00 0.00 68 1014.9
20260504141019 67 270 5.0 11.0 0.00 0.00 0.00 72 1015.1
20260504140519 67 248 6.0 13.0 0.00 0.00 0.00 72 1015.1
20260504130519 63 225 3.0 6.0 0.00 0.00 0.00 77 1014.9
20260504110519 59 180 2.0 7.0 0.00 0.00 0.00 80 1014.0
20260504100518 60 0.0 2.0 0.00 0.00 0.00 77 1014.4
20260504081518 63 203 3.0 11.0 0.00 0.00 0.00 70 1014.7
20260504081018 63 180 3.0 11.0 0.00 0.00 0.00 70 1014.7
20260504080518 63 180 3.0 6.0 0.00 0.00 0.00 69 1014.7
20260504050520 58 158 3.0 5.0 0.00 0.00 0.00 75 1016.1
20260504045520 58 180 2.0 3.0 0.00 0.00 0.00 75 1016.1
20260504045020 59 180 1.0 4.0 0.00 0.00 0.00 73 1016.1
20260504044520 59 180 1.0 4.0 0.00 0.00 0.00 73 1016.1
20260504044020 59 180 1.0 4.0 0.00 0.00 0.00 73 1016.0
20260504043520 58 180 1.0 4.0 0.00 0.00 0.00 74 1015.9
20260504043040 59 180 1.0 3.0 0.00 0.00 0.00 73 1016.0
20260504042519 59 180 2.0 6.0 0.00 0.00 0.00 73 1016.0
20260504042101 58 180 2.0 6.0 0.00 0.00 0.00 74 1015.9
20260504041519 58 180 1.0 5.0 0.00 0.00 0.00 75 1015.8
20260504041040 58 180 1.0 4.0 0.00 0.00 0.00 74 1015.7
20260504040520 59 180 1.0 4.0 0.00 0.00 0.00 74 1015.8
20260504040120 59 180 2.0 5.0 0.00 0.00 0.00 74 1015.9
20260504035519 59 158 1.0 6.0 0.00 0.00 0.00 74 1015.9
20260504035020 58 203 1.0 5.0 0.00 0.00 0.00 75 1015.8
20260504034520 58 203 1.0 2.0 0.00 0.00 0.00 75 1016.0
20260504034020 59 203 1.0 3.0 0.00 0.00 0.00 74 1016.0
20260504033519 59 203 1.0 3.0 0.00 0.00 0.00 74 1016.1
20260504033019 59 203 1.0 3.0 0.00 0.00 0.00 73 1016.2
20260504032520 59 203 1.0 3.0 0.00 0.00 0.00 73 1016.1
20260504032020 59 203 1.0 4.0 0.00 0.00 0.00 73 1016.1
20260504031519 59 158 1.0 3.0 0.00 0.00 0.00 73 1016.1
20260504031019 60 135 1.0 3.0 0.00 0.00 0.00 72 1016.2
20260504030519 60 135 1.0 3.0 0.00 0.00 0.00 71 1016.2
20260504030039 60 135 1.0 5.0 0.00 0.00 0.00 71 1016.2
20260504025519 61 135 1.0 3.0 0.00 0.00 0.00 70 1016.2
20260504025019 61 135 1.0 4.0 0.00 0.00 0.00 70 1016.2
20260504024519 61 180 2.0 5.0 0.00 0.00 0.00 70 1016.3
20260504024019 61 180 1.0 3.0 0.00 0.00 0.00 70 1016.1
20260504023600 61 180 1.0 3.0 0.00 0.00 0.00 70 1016.0
20260504023019 61 180 1.0 4.0 0.00 0.00 0.00 70 1016.0
20260504022519 61 225 1.0 2.0 0.00 0.00 0.00 70 1016.0
20260504022019 61 225 1.0 3.0 0.00 0.00 0.00 72 1015.9
20260504021519 61 0.0 1.0 0.00 0.00 0.00 73 1015.9
20260504021100 61 0.0 2.0 0.00 0.00 0.00 73 1015.9
20260504020519 61 0.0 1.0 0.00 0.00 0.00 72 1015.9
20260504020019 62 225 1.0 3.0 0.00 0.00 0.00 70 1015.9
20260504015519 62 225 1.0 2.0 0.00 0.00 0.00 69 1015.8
20260504015019 62 270 1.0 4.0 0.00 0.00 0.00 68 1015.8
20260504014519 62 270 1.0 3.0 0.00 0.00 0.00 70 1015.8
20260504014019 63 293 1.0 4.0 0.00 0.00 0.00 70 1015.8
20260504013519 62 0.0 1.0 0.00 0.00 0.00 69 1015.8
20260504013019 63 0.0 2.0 0.00 0.00 0.00 66 1015.7
20260504012519 63 293 1.0 2.0 0.00 0.00 0.00 66 1015.6
20260504012019 63 0.0 1.0 0.00 0.00 0.00 66 1015.7
20260504011519 64 0.0 1.0 0.00 0.00 0.00 65 1015.7
20260504011019 64 0.0 0.0 0.00 0.00 0.00 66 1015.6
20260504010519 64 0.0 0.0 0.00 0.00 0.00 63 1015.6
20260504010019 65 0.0 0.0 0.00 0.00 0.00 62 1015.5
20260504005519 66 0.0 0.0 0.00 0.00 0.00 61 1015.5
20260504005019 66 0.0 2.0 0.00 0.00 0.00 61 1015.4
20260504004519 67 0.0 1.0 0.00 0.00 0.00 60 1015.4
20260504004039 68 0.0 1.0 0.00 0.00 0.00 57 1015.6
20260504003519 68 0.0 0.0 0.00 0.00 0.00 55 1015.5
20260504003039 69 0.0 2.0 0.00 0.00 0.00 54 1015.6
20260504002519 70 0.0 1.0 0.00 0.00 0.00 52 1015.5
20260504002019 71 0.0 3.0 0.00 0.00 0.00 50 1015.5
20260504001518 71 0.0 2.0 0.00 0.00 0.00 52 1015.6
20260504001019 72 293 1.0 2.0 0.00 0.00 0.00 48 1015.6
20260504000519 72 0.0 2.0 0.00 0.00 0.00 48 1015.6
20260504000019 73 293 1.0 3.0 0.00 0.00 0.00 46 1015.6
20260503235518 73 0.0 3.0 0.00 0.00 0.00 47 1015.6
20260503235019 73 293 1.0 3.0 0.00 0.00 0.00 48 1015.6
20260503234519 73 293 2.0 7.0 0.00 0.00 0.00 44 1015.6
20260503234018 74 270 4.0 7.0 0.00 0.00 0.00 47 1015.6
20260503233519 74 315 3.0 8.0 0.00 0.00 0.00 43 1015.6
20260503233018 74 315 3.0 7.0 0.00 0.00 0.00 43 1015.7
20260503232519 74 225 3.0 7.0 0.00 0.00 0.00 42 1015.7
20260503232019 74 315 3.0 8.0 0.00 0.00 0.00 41 1015.7
20260503231519 75 293 3.0 7.0 0.00 0.00 0.00 42 1015.8
20260503231019 75 225 2.0 7.0 0.00 0.00 0.00 45 1015.9
20260503230539 75 293 2.0 5.0 0.00 0.00 0.00 44 1015.9
20260503230018 75 293 3.0 8.0 0.00 0.00 0.00 42 1015.9
20260503225518 74 293 3.0 7.0 0.00 0.00 0.00 43 1016.0
20260503225018 74 293 5.0 9.0 0.00 0.00 0.00 42 1016.1
20260503224538 74 293 7.0 11.0 0.00 0.00 0.00 42 1016.1
20260503224038 74 293 8.0 13.0 0.00 0.00 0.00 43 1016.2
20260503223518 75 293 6.0 10.0 0.00 0.00 0.00 40 1016.2
20260503223018 75 293 5.0 10.0 0.00 0.00 0.00 43 1016.3
20260503222518 75 293 4.0 9.0 0.00 0.00 0.00 42 1016.4